Regional Weather Roundup
Issued by NWS

Home | Current Version | Previous Version | Graphics & Text | Print | Product List | Glossary Off
Versions: 1 2 3 4 5 6 7 8 9 10 11 12 13 14 15 16 17 18 19 20 21 22 23 24 25 26 27 28 29 30 31 32 33 34 35 36 37 38 39 40 41 42 43 44 45 46 47 48 49 50

000
ASUS43 KMKX 061411
RWRWI

WISCONSIN REGIONAL WEATHER ROUNDUP
NATIONAL WEATHER SERVICE MILWAUKEE/SULLIVAN WI
900 AM CDT FRI MAY 06 2016

NOTE: "FAIR" INDICATES FEW OR NO CLOUDS BELOW 12,000 FEET WITH NO
SIGNIFICANT WEATHER AND/OR OBSTRUCTIONS TO VISIBILITY.

WIZ001-002-006>008-014>016-023>028-061500-
NORTHWEST WISCONSIN

CITY           SKY/WX    TMP DP  RH WIND       PRES   REMARKS
SUPERIOR ARPT  SUNNY     74  47  38 SW9       29.76F
ASHLAND        SUNNY     75  45  34 SW12      29.78
HAYWARD        SUNNY     68  45  43 SW6       29.84
SIREN          SUNNY     71  42  35 W8        29.84S
CUMBERLAND     SUNNY     68  41  37 W8        29.86S
RICE LAKE      SUNNY     70  41  34 W12G17    29.87F
CHETEK         SUNNY     70  47  44 W5        29.86F
LADYSMITH      SUNNY     65  47  51 S5        29.88S
EAU CLAIRE     SUNNY     68  45  43 W8        29.87
MENOMONIE      SUNNY     73  46  37 SW9       29.87F
NEW RICHMOND   SUNNY     69  46  43 SW7       29.87S
OSCEOLA        SUNNY     71  45  38 SW8       29.88F
$$

WIZ003>005-009-010-017-018-061500-
NORTH CENTRAL WISCONSIN

CITY           SKY/WX    TMP DP  RH WIND       PRES   REMARKS
MANITOWISH WTR SUNNY     65  46  48 W7        29.84S
ARBOR VITAE    SUNNY     66  44  45 NW7       29.84S
WOODRUFF       SUNNY     66  44  45 NW7       29.84S
RHINELANDER    SUNNY     68  42  38 W13G21    29.86
EAGLE RIVER    SUNNY     62  40  43 CALM      29.85S
LAND O LAKES   SUNNY     66  40  39 W6        29.85F
PHILLIPS       MOSUNNY   65  44  48 W5        29.86R
TOMAHAWK       SUNNY     70  43  37 W7        29.86F
MEDFORD        SUNNY     64  44  49 W9        29.88R
MERRILL        SUNNY     59  44  56 CALM      29.88S
$$

WIZ029-030-035-036-043>047-061500-
CENTRAL WISCONSIN

CITY           SKY/WX    TMP DP  RH WIND       PRES   REMARKS
WAUSAU         SUNNY     62  43  49 SW6       29.86
MOSINEE        MOSUNNY   61  45  55 SW8       29.89S
MARSHFIELD     SUNNY     63  42  46 W10       29.88
STEVENS POINT  MOSUNNY   59  42  52 SW6       29.90S
WAUPACA        CLOUDY    64  42  43 SW6       29.90F
WAUTOMA        CLOUDY    60  42  51 SW8       29.92S
WISC RAPIDS    MOSUNNY   62  40  44 SW10      29.91
CAMP DOUGLAS   MOSUNNY   63  46  55 SW6       29.91S
$$

WIZ011>013-019>022-031-037>040-048>050-061500-
NORTHEAST WISCONSIN

CITY           SKY/WX    TMP DP  RH WIND       PRES   REMARKS
ANTIGO         SUNNY     60  44  55 CALM      29.88S
SHAWANO        MOSUNNY   63  41  44 W6        29.88F
OCONTO         SUNNY     64  41  43 SW7       29.86F
STURGEON BAY   SUNNY     63  45  51 SW10      29.91S
GREEN BAY      SUNNY     62  44  51 SW9       29.89
MANITOWOC      SUNNY     66  42  41 MISG      29.91F
APPLETON       PTSUNNY   61  39  44 SW8       29.89F
CLINTONVILLE   MOSUNNY   61  39  44 SW9       29.88F
OSHKOSH        SUNNY     62  41  46 SW10      29.90F
$$

WIZ032>034-041-042-053>061-061500-
SOUTHWEST WISCONSIN

CITY           SKY/WX    TMP DP  RH WIND       PRES   REMARKS
LA CROSSE      SUNNY     64  44  48 S8        29.91
SPARTA         SUNNY     65  43  44 W6        29.91F
VIROQUA        SUNNY     64  42  45 W6        29.94S
BOSCOBEL       PTSUNNY   56  45  66 S5        29.96F
PRAIRIE DU CHI MOSUNNY   59  40  49 CALM      29.96S
PLATTEVILLE    MOSUNNY   60  43  53 SW9       29.97F
$$

WIZ056-057-062-063-064-067-068-061500-
SOUTH CENTRAL WISCONSIN

CITY           SKY/WX    TMP DP  RH WIND       PRES   REMARKS
REEDSBURG      MOSUNNY   59  43  55 SE3       29.93S
BARABOO/DELLS  PTSUNNY   58  38  47 SW7       29.94S
LONE ROCK      CLOUDY    59  43  55 CALM      29.96S
MINERAL POINT  MOSUNNY   61  41  48 S5        29.97S
MADISON        CLOUDY    60  40  47 VRB6      29.96R
MIDDLETON      CLOUDY    60  41  49 SW8       29.97R
WATERTOWN      SUNNY     63  41  45 SW12      29.94S
MONROE         SUNNY     61  41  48 SW14      29.97F
JANESVILLE     MOSUNNY   61  43  51 SW7       29.97F
$$

WIZ051-052-058>065-066-070>072-061500-
SOUTHEAST WISCONSIN

CITY           SKY/WX    TMP DP  RH WIND       PRES   REMARKS
MILWAUKEE      PTSUNNY   63  39  41 SW9       29.96S
WAUKESHA       MOSUNNY   61  39  44 SW6       29.96F
MILWAUKEE/TIMM NOT AVBL
RACINE         MOSUNNY   60  41  49 SW7       29.97F
BURLINGTON     MOSUNNY   59  38  45 SW9       29.96F
KENOSHA        CLOUDY    59  43  55 SW8       29.97S
FOND DU LAC    MOSUNNY   62  41  46 SW14      29.92S
SHEBOYGAN      SUNNY     66  42  41 SW12      29.92F
WEST BEND      SUNNY     64  36  34 SW12      29.94S
JUNEAU         MOSUNNY   60  41  50 SW9       29.95F
$$

LSZ147-162-061500-
LAKE SUPERIOR

STATION/POSITION TIME  TEMP    WIND        PRES    WAVE
                       AIR SEA DIR/SP/G            HT/PER
                 (UTC) (F)     (DEG/KT/KT) (MB)    (FT/S)
W MID LAKE BUOY  1250   44 37  200/  6/  8 1008.3R   1/ 3
DEVILS ISLAND    1400   60     230/ 18/ 20 1006.9F
SAXON HARBOR     1300   70     190/  6/ 11 1008.5
$$

LMZ867-665-643>646-061500-
LAKE MICHIGAN

STATION/POSITION TIME  TEMP    WIND        PRES    WAVE
                       AIR SEA DIR/SP/G            HT/PER
                 (UTC) (F)     (DEG/KT/KT) (MB)    (FT/S)
CHAMBERS ISLAND  1300   57     180/  9/ 14 1011.9S
N MID LAKE BUOY  1250   42 39  190/ 14/ 16 1012.2F   1/ 3
NORTHPORT PIER   1300   48     160/  4/  8 1011.9F
ALGOMA LAKESHORE 1316          210/  8/  9   N/A
KEWAUNEE LAKESHO 1300   47     170/  7/  7 1011.9F
SHEBOYGAN LAKESH 1400   55     180/ 11/ 12 1013.6F
PORT WASHINGTON  1300   61     260/  6/  8 1014.6
S MID LAKE BUOY  1250   44 40  190/  8/  8 1015.2S   1
KENOSHA   LAKESH 1400   61     250/  9/ 14 1014.9S
$$

TC  - TEMPERATURE IN CELSIUS
VSB - VISIBILITY IN STATUTE MILES
WCI - WIND CHILL INDEX
HX  - HEAT INDEX




USA.gov is the U.S. government's official web portal to all federal, state and local government web resources and services.